Regional Weather Roundup
Issued by NWS Cleveland, OH

Home | Current Version | Previous Version | Graphics & Text | Print | Product List | Glossary On
Versions: 1 2 3 4 5 6 7 8 9 10 11 12 13 14 15 16 17 18 19 20 21 22 23 24 25 26 27 28 29 30 31 32 33 34 35 36 37 38 39 40 41 42 43 44 45 46 47 48 49 50
000
ASUS41 KCLE 270310
RWRCLE
OHIO REGIONAL WEATHER ROUNDUP
NATIONAL WEATHER SERVICE CLEVELAND, OH
1100 PM EDT THU APR 26 2018

NOTE: "FAIR" INDICATES FEW OR NO CLOUDS BELOW 12,000 FEET WITH NO
SIGNIFICANT WEATHER AND/OR OBSTRUCTIONS TO VISIBILITY.

OHZ001>008-015>018-024>027-034-035-043-044-270400-
   NORTHWEST OHIO

CITY           SKY/WX    TMP DP  RH WIND       PRES   REMARKS
DEFIANCE       FAIR      49  38  65 CALM      29.85F
FINDLAY        FAIR      54  39  57 CALM      29.84F
TOLEDO EXPRESS FAIR      51  41  68 SE5       29.85S
TOLEDO EXEC    FAIR      47  39  74 CALM      29.86F
LIMA           FAIR      51  40  65 CALM      29.85F
$$

OHZ009>014-019>023-028>033-038-089-270400-
   NORTHEAST OHIO

CITY           SKY/WX    TMP DP  RH WIND       PRES   REMARKS
CLE-HOPKINS    FAIR      46  35  65 SE6       29.89F
CLE-LAKEFRONT  FAIR      50  32  50 SE5       29.86F
CUY CO. ARPT   PTCLDY    46  36  66 SE8       29.88F
LORAIN-ELYRIA  FAIR      46  32  58 S5        29.87F
ASHTABULA      FAIR      40  36  86 CALM      29.88F
AKRON-CANTON   MOCLDY    48  37  65 NE8       29.87F
WOOSTER        FAIR      48  39  71 NE5       29.87F
MANSFIELD      FAIR      47  38  71 E5        29.87S
YOUNGSTOWN     MOCLDY    47  36  65 NE5       29.87F
$$

OHZ042-051>053-060>062-070>072-077>081-270400-
  SOUTHWEST OHIO

CITY           SKY/WX    TMP DP  RH WIND       PRES   REMARKS
CINC-COVINGTON FAIR      55  35  47 NW10      29.84S
CINC-LUNKEN    FAIR      50  46  86 CALM      29.84F
HAMILTON       FAIR      49  43  80 CALM      29.85S
DAYTON         MOCLDY    54  39  57 N3        29.85S
WRIGHT-PAT AFB PTCLDY    52  43  71 CALM      29.84S
DAYTON GENERAL FAIR      57  35  43 CALM      29.83F
WILMINGTON     FAIR      56  43  61 CALM      29.84F
$$

OHZ036-037-039>041-045>050-054>059-063>069-073>076-082>088-270400-
  CENTRAL AND SOUTHEAST OHIO

CITY           SKY/WX    TMP DP  RH WIND       PRES   REMARKS
COLUMBUS       CLOUDY    58  42  55 E3        29.84F
OSU AIRPORT    FAIR      55  42  61 NE3       29.84F
BOLTON FIELD   FAIR      54  45  71 CALM      29.85S
RICKENBACK AFB MOCLDY    57  46  67 N3        29.84S
NEWARK         MOCLDY    54  45  71 CALM      29.85S
MARION         FAIR      48  40  73 NE5       29.86F
LANCASTER      CLOUDY    57  45  64 SE7       29.85S
ZANESVILLE     FAIR      55  41  59 CALM      29.85F
NEW PHILLY     NOT AVBL
$$




USA.gov is the U.S. government's official web portal to all federal, state and local government web resources and services.